sat.trackr.live / text

‹ back to catalog

ONEWEB-0059

NORAD 45162 · 2020-008AH

PAYLOAD ACTIVE UNKNOWN

§ Identity

Operator
Country
UK
Launch date
2020-02-06
Launch site
TYMSC
Launch vehicle
Mass (kg)
RCS (m²)

Purposes: comms

External: N2YO · Heavens-Above · Gunter

§ Orbital elements

Epoch: 2026-05-25T03:32:15.067104Z

Period
109.89 min
Inclination
87.8856°
Eccentricity
0.0001903
Mean motion
13.10371175 rev/d
Perigee alt
1,220.3 km
Apogee alt
1,223.2 km
Semi-major
7,599.9 km
B*
7.8540e-4
RAAN
40.8649°
Arg perigee
73.6072°
Mean anomaly
286.5264°
Rev number
30,530

§ Raw data

ONEWEB-00591 45162U 20008AH  26145.14739661  .00000287  00000+0  78540-3 0  99962 45162  87.8856  40.8649 0001903  73.6072 286.5264 13.10371175305304

JSON: /api/v1/satellites/45162 · /tle

For live sub-satellite position, see the globe view (requires WebGL).

§ Visibility from observer

Set your observer location to see the next 7 days of passes ≥ 10°. The values pass through the URL so the page stays shareable.

No JS? Fill the form by hand. The geolocation button needs JavaScript.